Regional Weather Roundup
Issued by NWS Cleveland, OH

Home | Current Version | Previous Version | Graphics & Text | Print | Product List | Glossary On
Versions: 1 2 3 4 5 6 7 8 9 10 11 12 13 14 15 16 17 18 19 20 21 22 23 24 25 26 27 28 29 30 31 32 33 34 35 36 37 38 39 40 41 42 43 44 45 46 47 48 49 50
000
ASUS41 KCLE 211202
RWRCLE
OHIO REGIONAL WEATHER ROUNDUP
NATIONAL WEATHER SERVICE CLEVELAND, OH
700 AM EST SUN DEC 21 2014

NOTE: "FAIR" INDICATES FEW OR NO CLOUDS BELOW 12,000 FEET WITH NO
SIGNIFICANT WEATHER AND/OR OBSTRUCTIONS TO VISIBILITY.

OHZ001>008-015>018-024>027-034-035-043-044-211300-
   NORTHWEST OHIO

CITY           SKY/WX    TMP DP  RH WIND       PRES   REMARKS
DEFIANCE       CLOUDY    28  25  88 CALM      30.31R FOG
FINDLAY        PTCLDY    20  18  92 CALM      30.30R FOG
TOLEDO EXPRESS MOCLDY    19  16  88 CALM      30.31R FOG
TOLEDO EXEC    CLEAR     22  19  89 CALM      30.32S FOG
LIMA           FOG       24  20  84 CALM      30.29S VSB 1
$$

OHZ009>014-019>023-028>033-038-089-211300-
   NORTHEAST OHIO

CITY           SKY/WX    TMP DP  RH WIND       PRES   REMARKS
CLE-HOPKINS    CLOUDY    29  23  78 SE3       30.34R
CLE-LAKEFRONT  CLOUDY    31  23  72 CALM      30.32S
CUY CO. ARPT   CLOUDY    30  27  86 CALM      30.32
LORAIN-ELYRIA  CLOUDY    29  24  82 CALM      30.32R
ASHTABULA      CLOUDY    30  25  81 CALM      30.32R
AKRON-CANTON   CLOUDY    28  23  81 CALM      30.30R
WOOSTER        CLOUDY    28  22  78 CALM      30.31R
MANSFIELD      CLOUDY    28  23  81 CALM      30.29R
YOUNGSTOWN     CLOUDY    28  23  81 CALM      30.29R
$$

OHZ042-051>053-060>062-070>072-077>081-211300-
  SOUTHWEST OHIO

CITY           SKY/WX    TMP DP  RH WIND       PRES   REMARKS
CINC-COVINGTON MOCLDY    29  21  72 E8        30.29F WCI  21
CINC-LUNKEN    PTCLDY    24  23  96 VRB3      30.34S FOG
HAMILTON       MOCLDY    18  16  92 CALM      30.33F FOG
DAYTON         FAIR      22  19  89 CALM      30.31R FOG
WRIGHT-PAT AFB FAIR      21  19  93 CALM      30.32R FOG
DAYTON GENERAL CLEAR     22  20  92 CALM      30.30R FOG
WILMINGTON     MOCLDY    22  19  89 CALM      30.30R FOG
$$

OHZ036-037-039>041-045>050-054>059-063>069-073>076-082>088-211300-
  CENTRAL AND SOUTHEAST OHIO

CITY           SKY/WX    TMP DP  RH WIND       PRES   REMARKS
COLUMBUS       CLOUDY    30  20  66 CALM      30.31R
OSU AIRPORT    CLEAR     27  22  81 SE3       30.30S
BOLTON FIELD   NOT AVBL
RICKENBACK AFB NOT AVBL
NEWARK         CLOUDY    30  25  81 CALM      30.31R
MARION         MOCLDY    22  19  89 CALM      30.30R FOG
LANCASTER      CLOUDY    34  27  75 NE3       30.31S HAZE
ZANESVILLE     CLOUDY    29  24  82 CALM      30.31R HAZE
NEW PHILLY     CLOUDY    30  24  78 CALM      30.33R
$$



USA.gov is the U.S. government's official web portal to all federal, state and local government web resources and services.